SCP
0 0 0 0 0 0 0 0 0 0 0 0 0 0 0 0 0 0 0 0 0 0 0 0 0 0 0 0 0 0 0 0 0 0 0 0 0 0 0 0 0 0 0
0 0 0 0 0 0 0 0 0 0 0 0 0 0 0 0 0 0 0 0 0 0 0 0 0 0 0 0 0 0 0 0 0 0 0 0 0 0 0 0 0 0 0
0 0 0 0 0 0 0 0 0 0 0 0 0 0 0 0 0 0 0 0 0 0 0 0 0 0 0 0 0 0 0 0 0 0 0 0 0 0 0 0 0 0 0
0 0 0 0 0 0 0 0 0 0 0 0 0 0 0 0 0 0 0 0 0 0 0 0 0 0 0 0 0 0 0 0 0 0 0 0 0 0 0 0 0 0 0
0 0 0 0 0 0 0 0 0 0 0 0 0 0 0 0 0 0 0 0 0 0 0 0 0 0 0 0 0 0 0 0 0 0 0 0 0 0 0 0 0 0 0
0 0 0 0 0 0 0 0 0 0 0 0 0 0 0 0 0 0 0 0 0 0 0 0 0 0 0 0 0 0 0 0 0 0 0 0 0 0 0 0 0 0 0
0 0 0 0 0 0 0 0 0 0 0 0 0 0 0 0 0 0 0 0 0 0 0 0 0 0 0 0 0 0 0 0 0 0 0 0 0 0 0 0 0 0 0
0 0 0 0 0 0 0 0 0 0 0 0 0 0 0 0 0 0 0 0 0 0 0 0 0 0 0 0 0 0 0 0 0 0 0 0 0 0 0 0 0 0 0
0 0 0 0 0 0 0 0 0 0 0 0 0 0 0 0 0 0 0 0 0 0 0 0 0 0 0 0 0 0 0 0 0 0 0 0 0 0 0 0 0 0 0
0 0 0 0 0 0 0 0 0 0 0 0 0 0 0 0 0 0 0 0 0 0 0 0 0 0 0 0 0 0 0 0 0 0 0 0 0 0 0 0 0 0 0
0 0 0 0 0 0 0 0 0 0 0 0 0 0 0 0 0 0 0 0 0 0 0 0 0 0 0 0 0 0 0 0 0 0 0 0 0 0 0 0 0 0 0
0 0 0 0 0 0 0 0 0 0 0 0 0 0 0 0 0 0 0 0 0 0 0 0 0 0 0 0 0 0 0 0 0 0 0 0 0 0 0 0 0 0 0
0 0 0 0 0 0 0 0 0 0 0 0 0 0 0 0 0 0 0 0 0 0 0 0 0 0 0 0 0 0 0 0 0 0 0 0 0 0 0 0 0 0 0
0 0 0 0 0 0 0 0 0 0 0 0 0 0 0 0 0 0 0 0 0 0 0 0 0 0 0 0 0 0 0 0 0 0 0 0 0 0 0 0 0 0 0
0 0 0 0 0 0 0 0 0 0 0 0 0 0 0 0 0 0 0 0 0 0 0 0 0 0 0 0 0 0 0 0 0 0 0 0 0 0 0 0 0 0 0
0 0 0 0 0 0 0 0 0 0 0 0 0 0 0 0 0 0 0 0 0 0 0 0 0 0 0 0 0 0 0 0 0 0 0 0 0 0 0 0 0 0 0
0 0 0 0 0 0 0 0 0 0 0 0 0 0 0 0 0 0 0 0 0 0 0 0 0 0 0 0 0 0 0 0 0 0 0 0 0 0 0 0 0 0 0
0 0 0 0 0 0 0 0 0 0 0 0 0 0 0 0 0 0 0 0 0 0 0 0 0 0 0 0 0 0 0 0 0 0 0 0 0 0 0 0 0 0 0
0 0 0 0 0 0 0 0 0 0 0 0 0 0 0 0 0 0 0 0 0 0 0 0 0 0 0 0 0 0 0 0 0 0 0 0 0 0 0 0 0 0 0
-0 0 0 0 0 0 0 0 0 0 0 0 0 0 0 0 0 0 0 0 0 0 0 0 0 0 0 0 0 0 0 0 0 0 0 0 0 0 0 0 0 0 0
0 0 0 0 0 0 0 0 0 0 0 0 0 0 0 0 0 0 0 0 0 0 0 0 0 0 0 0 0 0 0 0 0 0 0 0 0 0 0 0 0 0 0
0 0 0 0 0 0 0 0 0 0 0 0 0 0 0 0 0 0 0 0 0 0 0 0 0 0 0 0 0 0 0 0 0 0 0 0 0 0 0 0 0 0 0
0 0 0 0 0 0 0 0 0 0 0 0 0 0 0 0 0 0 0 0 0 0 0 0 0 0 0 0 0 0 0 0 0 0 0 0 0 0 0 0 0 0 0
0 0 0 0 0 0 0 0 0 0 0 0 0 0 0 0 0 0 0 0 0 0 0 0 0 0 0 0 0 0 0 0 0 0 0 0 0 0 0 0 0 0 0
0 0 0 0 0 0 0 0 0 0 0 0 0 0 0 0 0 0 0 0 0 0 0 0 0 0 0 0 0 0 0 0 0 0 0 0 0 0 0 0 0 0 0
0 0 0 0 0 0 0 0 0 0 0 0 0 0 0 0 0 0 0 -0 -0 -0 -0 0 0 0 0 0 0 0 0 0 0 0 0 0 0 0 0 0 0 0 0
Wind_Speed
7 6 6 5 5 5 6 7 7 6 6 7 7 8 7 7 7 6 5 5 5 4 3 4 4 3 2 2 2 2 2 3 3 4 3 2 2 2 2 3 4 5 5
7 6 6 5 5 5 5 6 6 6 6 6 6 7 7 7 7 7 7 6 5 5 4 4 4 3 3 2 2 2 2 3 3 3 3 2 3 3 2 3 4 4 4
6 6 5 5 6 6 5 5 6 6 5 5 6 7 6 6 6 6 6 6 5 5 5 4 4 3 3 2 2 2 2 2 2 3 3 2 2 1 1 2 3 2 4
6 6 6 6 6 6 5 5 5 6 6 5 5 5 5 5 5 5 5 5 4 4 3 4 4 4 5 4 3 3 2 2 2 2 2 2 2 1 1 2 2 2 3
6 5 5 5 5 5 5 5 5 5 5 5 5 4 4 4 4 5 5 5 4 4 3 3 4 5 6 5 4 4 3 2 2 2 2 1 2 1 2 2 3 3 3
5 5 4 4 5 5 6 6 5 5 4 4 4 4 4 3 4 6 6 4 4 4 4 3 4 4 5 6 6 6 6 5 4 3 2 3 3 3 2 2 2 1 3
5 5 5 5 5 4 5 5 5 5 5 4 4 4 3 3 4 5 6 4 3 4 4 4 3 3 4 3 4 5 5 6 6 5 4 4 4 4 3 2 3 3 4
5 5 5 5 4 4 4 4 4 4 4 4 3 3 3 2 3 4 5 4 3 3 3 3 3 3 2 2 2 2 3 4 5 4 4 5 4 3 4 4 4 3 4
4 4 4 4 4 5 5 4 3 4 4 4 3 4 3 1 1 2 4 2 2 1 1 1 2 2 2 2 2 2 3 3 3 4 5 5 5 4 3 1 1 1 3
4 4 4 4 5 5 4 4 4 4 4 4 4 3 3 2 2 2 4 2 1 1 0 0 1 1 1 1 2 2 3 3 2 2 2 4 3 4 4 4 3 2 2
4 6 6 6 5 5 5 5 5 5 5 5 5 5 5 4 4 4 4 2 1 1 1 1 1 1 1 1 1 2 3 2 1 1 2 2 2 2 2 2 3 4 4
6 7 7 7 6 6 7 6 6 6 7 5 6 5 4 4 5 6 6 4 3 2 1 0 1 3 2 2 1 1 1 1 1 1 1 2 2 2 3 3 3 4 5
9 9 8 9 8 7 7 7 6 5 6 5 5 5 4 4 5 7 6 5 4 3 1 2 3 3 3 3 2 2 2 1 1 1 2 2 2 3 3 3 3 3 4
9 8 7 8 8 8 6 6 6 5 5 4 4 4 3 3 3 4 3 3 5 4 3 4 5 5 4 4 3 3 2 1 0 1 2 3 2 2 2 2 2 2 2
9 8 7 7 7 8 7 6 6 5 4 5 3 3 3 3 3 4 3 3 3 3 3 3 4 4 4 4 3 3 2 2 2 1 2 2 2 3 3 2 2 2 2
8 7 6 5 5 6 7 7 11 9 10 11 9 6 4 5 5 7 8 8 7 6 5 4 3 3 3 3 3 3 2 2 2 2 2 2 3 3 3 3 2 2 3
7 6 5 5 5 5 5 6 5 6 10 11 10 10 9 8 9 9 9 9 9 8 6 4 3 3 3 3 2 2 2 3 2 2 2 3 3 3 3 3 3 3 3
7 7 6 4 4 4 4 4 4 5 4 4 5 8 9 10 10 10 9 8 7 7 4 3 3 3 3 3 3 2 2 3 3 3 3 3 3 3 4 4 4 4 4
6 5 5 5 5 4 4 5 5 5 4 3 3 4 6 7 9 9 8 6 4 3 3 3 2 2 3 3 3 3 3 3 3 3 3 4 3 3 3 4 4 6 5
7 10 8 6 5 5 5 5 5 5 4 4 3 2 2 4 5 5 4 3 3 2 2 3 3 3 2 3 3 3 3 3 4 3 3 4 4 3 4 5 5 5 5
5 7 10 7 6 5 5 5 4 4 4 4 3 4 5 4 4 3 3 3 3 3 3 3 3 3 3 3 3 3 4 3 3 4 4 4 4 4 4 5 5 5 5
6 6 6 6 5 5 5 5 5 5 5 5 3 4 7 5 4 3 3 3 3 2 2 2 2 2 2 3 3 3 3 3 4 5 5 5 4 5 5 5 5 5 5
6 7 6 6 5 7 6 5 5 5 4 4 4 4 4 4 3 3 3 3 3 3 3 3 3 3 3 3 3 2 3 4 4 5 5 5 5 5 5 6 7 7 7
6 7 6 6 5 5 5 5 4 5 5 4 4 4 3 3 3 3 3 3 3 3 3 3 3 4 5 4 3 3 3 4 5 4 5 6 6 6 6 6 7 7 7
6 6 5 5 5 4 4 4 4 4 4 4 3 3 3 3 3 3 3 3 4 4 4 4 3 4 5 6 6 5 7 8 6 5 4 4 6 7 7 7 7 7 7
6 5 5 4 4 4 4 4 4 4 4 3 3 3 3 3 3 3 3 3 3 3 3 3 5 5 6 5 7 8 8 8 8 7 5 4 6 6 6 6 7 6 7
Wind_Direction
180 181 179 179 180 179 182 186 181 179 182 182 183 181 184 185 180 179 184 181 186 199 202 198 216 208 193 197 180 175 177 164 201 257 252 253 215 226 216 219 223 222 230
180 177 180 178 174 176 180 182 176 177 183 185 181 181 186 186 181 182 186 186 186 194 204 203 220 212 204 203 187 192 191 184 182 228 253 246 234 231 224 233 238 231 230
172 171 174 176 179 182 183 183 180 178 179 182 180 182 186 182 181 186 184 184 193 198 198 198 210 201 212 208 200 203 211 201 182 194 235 243 252 242 220 256 259 264 255
167 170 176 182 182 182 180 175 172 171 169 172 176 177 175 170 176 185 180 179 188 195 198 198 199 198 206 206 207 209 204 202 196 195 226 243 248 256 173 235 275 270 272
165 173 182 176 172 167 163 161 156 159 165 160 160 163 163 168 186 187 183 183 183 191 200 205 212 215 216 208 204 200 193 194 197 201 225 237 245 235 225 223 240 269 277
158 170 169 164 162 161 163 156 152 152 147 141 150 154 158 177 181 183 183 182 183 193 207 215 226 228 230 224 221 202 190 192 199 199 217 229 244 234 231 224 226 256 280
160 164 158 153 158 162 154 145 151 150 142 142 151 148 154 171 178 185 184 179 187 201 210 214 228 232 223 228 233 227 218 213 197 188 206 225 231 224 214 234 230 229 239
153 156 154 151 151 144 138 143 151 144 143 151 154 155 148 172 190 193 186 177 187 205 204 201 207 234 229 214 223 233 239 234 220 210 215 229 231 224 210 219 230 247 266
136 135 134 138 143 137 135 139 143 137 136 141 136 138 139 140 158 176 170 164 175 203 209 201 195 218 247 209 200 236 261 271 254 241 244 248 249 248 224 200 247 252 279
121 119 120 129 132 134 137 129 119 118 122 118 108 103 104 77 50 119 155 143 155 193 163 120 177 203 265 213 201 225 257 271 294 304 281 278 271 271 246 213 214 227 252
109 105 99 100 104 108 107 104 105 104 100 97 90 76 69 58 55 71 103 124 154 134 81 356 327 354 356 325 217 215 241 261 290 285 287 296 303 295 275 244 217 211 226
90 89 85 82 88 89 89 88 90 98 94 86 83 71 52 46 53 60 67 68 76 96 88 356 332 357 5 12 11 312 304 332 4 341 314 305 302 295 289 278 255 241 234
87 85 83 79 73 73 81 85 83 87 94 91 84 78 58 38 38 47 56 59 64 73 42 28 31 33 27 24 18 2 10 36 30 326 299 291 283 285 295 302 298 283 276
87 84 83 84 77 68 65 70 78 80 90 94 92 88 72 47 31 24 31 42 52 54 36 25 35 39 37 23 13 14 21 20 3 291 290 291 298 309 310 305 299 308 308
87 84 81 80 84 78 68 59 69 61 92 109 106 105 95 65 17 34 50 46 48 52 52 45 38 31 28 23 21 20 18 19 6 338 323 317 316 319 310 308 294 300 291
89 84 84 85 84 88 90 72 51 63 69 75 81 88 75 73 70 63 56 52 53 58 68 56 43 35 30 21 13 6 4 356 342 337 327 316 312 309 306 308 302 293 288
92 93 90 89 93 97 99 102 88 52 53 59 65 70 74 70 63 60 60 60 55 60 64 53 40 26 17 13 9 4 354 345 345 342 329 319 315 313 310 305 304 301 295
84 85 89 90 92 94 96 96 98 97 76 43 40 56 64 66 63 59 59 61 48 43 49 46 31 14 5 1 358 352 341 339 339 328 318 315 314 312 311 307 303 299 299
77 79 83 82 82 84 86 86 86 88 88 78 55 42 49 64 62 56 57 64 60 41 29 21 11 4 359 353 349 345 339 334 333 332 327 322 318 311 304 301 300 300 299
72 78 81 81 78 76 77 81 82 83 81 76 67 53 43 59 55 42 42 47 50 32 12 5 1 3 357 347 343 344 344 343 342 336 325 321 317 311 305 304 302 301 298
72 73 75 75 74 77 81 82 83 85 85 79 64 59 77 77 70 53 42 33 30 22 13 9 7 7 2 355 350 349 348 340 335 328 323 319 317 313 305 299 298 296 296
73 73 72 75 75 74 74 74 77 79 81 78 60 59 68 68 64 52 36 23 20 15 9 12 7 359 354 351 346 341 336 331 330 327 318 313 311 308 306 304 303 303 301
75 75 72 70 72 73 70 66 71 74 74 72 69 63 59 57 52 45 32 16 13 9 5 13 10 1 357 354 350 343 329 321 316 315 314 312 311 308 305 304 303 304 304
76 78 77 73 69 68 69 66 67 70 71 68 66 65 60 55 47 34 21 12 11 9 9 11 14 10 5 357 349 344 335 323 315 306 304 301 303 303 303 301 299 299 299
77 78 77 77 75 73 72 70 68 68 69 69 67 63 57 54 43 27 13 12 18 18 16 12 6 3 357 352 350 344 335 331 325 317 304 295 295 298 301 302 303 306 305
78 78 75 73 73 73 74 73 70 71 70 68 65 63 59 51 40 26 15 14 12 9 8 1 357 360 358 353 347 344 336 333 329 323 311 297 300 302 309 308 311 313 315